Regional Weather Roundup
Issued by NWS

Home | Current Version | Previous Version | Graphics & Text | Print | Product List | Glossary On
Versions: 1 2 3 4 5 6 7 8 9 10 11 12 13 14 15 16 17 18 19 20 21 22 23 24 25 26 27 28 29 30 31 32 33 34 35 36 37 38 39 40 41 42 43 44 45 46 47 48 49 50
000
ASUS43 KBIS 202310
RWRND

NORTH DAKOTA REGIONAL WEATHER ROUNDUP
NATIONAL WEATHER SERVICE BISMARCK ND
600 PM CDT WED SEP 20 2017

NOTE: "FAIR" INDICATES FEW OR NO CLOUDS BELOW 12,000 FEET WITH NO
SIGNIFICANT WEATHER AND/OR OBSTRUCTIONS TO VISIBILITY.


NDZ001>003-009>011-017-210000-
NORTHWEST NORTH DAKOTA

CITY           SKY/WX    TMP DP  RH WIND       PRES   REMARKS
WILLISTON      SUNNY     67  32  27 SW16G26   29.59S
MINOT          MOSUNNY   70  33  25 SW22G29   29.62R
MINOT AFB      MOSUNNY   69  29  23 SW23G35   29.60R
$$

NDZ018>021-031>035-040>046-210000-
SOUTHWEST NORTH DAKOTA

CITY           SKY/WX    TMP DP  RH WIND       PRES   REMARKS
BISMARCK       MOSUNNY   71  34  25 SW14      29.71R
DICKINSON      SUNNY     68  27  21 SW18G26   29.65S
GARRISON         N/A     68  32  26 SW24G31   29.65R
HETTINGER ARPT SUNNY     68  26  20 SW18      29.71R
$$

NDZ004>008-012>016-024-026-027-054-210000-
NORTHEAST NORTH DAKOTA

CITY           SKY/WX    TMP DP  RH WIND       PRES   REMARKS
GRAND FORKS    MOSUNNY   71  39  31 SW13      29.72R
GRND FRKS AFB  SUNNY     70  37  30 W10G21    29.73R
DEVILS LAKE    MOSUNNY   67  38  34 SW20G26   29.71R
$$

NDZ022-023-025-028>030-036>039-047>053-210000-
SOUTHEAST NORTH DAKOTA

CITY           SKY/WX    TMP DP  RH WIND       PRES   REMARKS
FARGO          SUNNY     71  39  31 SW13      29.78R
JAMESTOWN      SUNNY     68  39  34 S15G22    29.74R
$$





USA.gov is the U.S. government's official web portal to all federal, state and local government web resources and services.